Zurück zum Katalog

OBJECT F

AktivSSO
NORAD 100134·UNKNOWN·🇨🇳 China

Gestartet Jul 22, 2026 von Yellow Sea Launch Area

Loading…

Nächste Überflüge (nächste 24 Stunden)

TLE

AktuellSource: Space-Track

Epoche: Sep 14, 2026, 04:30 UTC

1 A0134U 26168F   26257.18803865  .00002849  00000-0  18016-3 0  9994
2 A0134  97.5409 338.0403 0020526 143.9404 216.3214 15.09651722  8167

Verfolge OBJECT F in Echtzeit mit AllMySat

Download on the App Store